User: anonymous
Location: Fort Wayne
(41.1310°N, 85.1290°W)
Time: 18:45:28
(UTC-04:00)
Language:

Helios 1B - Orbit

View from above orbital plane
View from above orbital plane
View from above satellite
View from above satellite

Ground track
Ground track

The orbit data is extracted from the following two-line orbital elements,

1 25977U 99064A   14293.26013216  .00002412  00000-0  32160-3 0  4009
2 25977 098.1575 012.8053 0001822 148.2005 278.3680 14.80586140800233
Epoch (UTC): 20 October 2014 06:14:35
Eccentricity: 0.0001822
inclination: 98.1575°
perigee height: 626 km
apogee height: 629 km
right ascension of ascending node: 12.8053°
argument of perigee: 148.2005°
revolutions per day: 14.80586140
mean anomaly at epoch: 278.3680°
orbit number at epoch: 80023

The dashed part of the orbit path shows where the satellite is in the earth's shadow,  

DLR